Coolangatta Observation History
Time Wind Speed Temp Pressure Rel. Hum Rain
11/05:30pm N 10-12 kts 25.9°c 1010.8 hPa 81% 0.0mm
11/05:01pm N 10-14 kts 26.3°c 1010.4 hPa 81% 0.0mm
11/05:00pm N 11-14 kts 26.1°c 1010.4 hPa 80% 0.0mm
11/04:30pm N 10-13 kts 26.3°c 1009.6 hPa 78% 0.0mm
11/04:00pm N 10-13 kts 26.7°c 1009.9 hPa 78% 0.0mm
11/03:30pm N 11-16 kts 26.6°c 1010.1 hPa 77% 0.0mm
11/03:00pm N 13-16 kts 27.1°c 1010.2 hPa 75% 0.0mm
11/02:30pm NNE 14-18 kts 27.3°c 1010.5 hPa 73% 0.0mm
11/02:00pm NNE 14-17 kts 28.4°c 1010.9 hPa 69% 0.0mm
11/01:30pm NNE 13-17 kts 28.0°c 1011.0 hPa 67% 0.0mm
11/01:00pm NNE 13-17 kts 28.1°c 1011.2 hPa 63% 0.0mm
11/12:30pm N 11-14 kts 29.6°c 1011.6 hPa 61% 0.0mm
11/12:00pm N 13-18 kts 28.4°c 1011.7 hPa 66% 0.0mm
11/11:30am N 13-16 kts 28.2°c 1011.9 hPa 65% 0.0mm
11/11:00am N 12-15 kts 28.5°c 1012.3 hPa 66% 0.0mm
11/10:30am N 14-16 kts 28.0°c 1012.2 hPa 66% 0.0mm
11/10:00am N 14-18 kts 27.5°c 1012.5 hPa 69% 0.0mm
11/09:30am N 15-18 kts 27.1°c 1012.7 hPa 71% 0.0mm
11/09:00am N 13-17 kts 26.8°c 1013.2 hPa 73% 0.0mm
11/08:30am N 12-15 kts 26.4°c 1013.4 hPa 74% 0.0mm
11/08:00am N 10-13 kts 26.9°c 1013.4 hPa 72% 0.0mm
11/07:30am N 8-11 kts 25.8°c 1013.7 hPa 73% 0.0mm
11/07:00am E 1-4 kts 26.1°c 1014.1 hPa 65% 0.0mm
11/06:30am NW 1-4 kts 25.5°c 1014.2 hPa 69% 0.0mm
11/06:00am W 2-5 kts 24.6°c 1014.0 hPa 77% 0.0mm
11/05:30am WNW 4-6 kts 24.1°c 1013.5 hPa 80% 0.0mm
11/05:00am NNW 8-11 kts 23.9°c 1012.1 hPa 81% 0.0mm
11/04:30am NNW 7-8 kts 23.8°c 1011.9 hPa 82% 0.0mm
11/04:00am NNW 9-12 kts 24.3°c 1011.5 hPa 81% 0.0mm
11/03:30am NW 11-16 kts 24.6°c 1011.2 hPa 81% 0.0mm
11/03:00am NNW 8-12 kts 24.6°c 1011.5 hPa 81% 0.0mm
11/02:30am NW 5-11 kts 24.1°c 1011.6 hPa 82% 0.0mm
11/02:18am NW 6-9 kts 24.0°c 1011.6 hPa 82% 0.0mm
11/02:00am NW 9-17 kts 24.2°c 1011.6 hPa 81% 0.0mm
11/01:54am NNW 10-17 kts 24.2°c 1011.6 hPa 82% 0.0mm
11/01:30am NNW 13-19 kts 24.1°c 1011.1 hPa 86% 0.0mm
11/01:00am N 13-17 kts 24.2°c 1010.9 hPa 85% 0.0mm
11/12:30am NNW 12-15 kts 24.2°c 1012.3 hPa 85% 0.0mm
11/12:00am N 11-13 kts 24.3°c 1013.5 hPa 83% 0.0mm
Time Wind Speed Temp Pressure Rel. Hum Rain
10/11:30pm N 8-10 kts 24.3°c 1014.7 hPa 82% 0.0mm
10/11:00pm N 7-9 kts 24.9°c 1015.1 hPa 77% 0.0mm
10/10:30pm N 7-12 kts 25.4°c 1015.8 hPa 71% 0.0mm
10/10:12pm NNW 4-6 kts 25.1°c 1016.1 hPa 73% 0.0mm
10/10:02pm NW 5-8 kts 25.1°c 1016.4 hPa 72% 0.0mm
10/10:00pm NW 5-7 kts 25.3°c 1016.5 hPa 74% 0.0mm
10/09:37pm WNW 10-15 kts 25.0°c 1017.3 hPa 79% 0.0mm
10/09:30pm N 12-16 kts 24.8°c 1015.3 hPa 82% 0.0mm
10/09:00pm NNW 11-15 kts 24.7°c 1014.7 hPa 82% 0.0mm
10/08:30pm N 13-17 kts 24.8°c 1014.3 hPa 81% 0.0mm
10/08:00pm N 14-17 kts 24.9°c 1013.8 hPa 81% 0.0mm
10/07:30pm NNW 11-14 kts 24.7°c 1013.7 hPa 81% 0.0mm
10/07:00pm NNW 12-15 kts 25.0°c 1013.7 hPa 78% 0.0mm
10/06:30pm N 14-19 kts 25.4°c 1013.3 hPa 75% 0.0mm
10/06:00pm N 14-18 kts 25.5°c 1013.0 hPa 77% 0.0mm
10/05:30pm N 13-17 kts 26.0°c 1012.7 hPa 76% 0.0mm
10/05:00pm N 14-18 kts 26.6°c 1012.5 hPa 72% 0.0mm
10/04:30pm N 14-18 kts 27.0°c 1012.4 hPa 71% 0.0mm
10/04:00pm N 14-18 kts 27.2°c 1012.5 hPa 71% 0.0mm
10/03:30pm N 16-19 kts 26.9°c 1012.7 hPa 71% 0.0mm
10/03:00pm N 16-21 kts 27.4°c 1013.1 hPa 70% 0.0mm
10/02:30pm N 15-20 kts 28.3°c 1013.4 hPa 69% 0.0mm
10/02:00pm N 16-21 kts 28.0°c 1013.7 hPa 67% 0.0mm
10/01:30pm NNE 16-21 kts 28.4°c 1014.0 hPa 68% 0.0mm
10/01:00pm NNE 17-21 kts 28.1°c 1014.4 hPa 70% 0.0mm
10/12:30pm NNE 16-22 kts 27.8°c 1014.8 hPa 70% 0.0mm
10/12:00pm NNE 16-21 kts 28.3°c 1015.2 hPa 68% 0.0mm
10/11:30am NNE 15-19 kts 28.3°c 1015.6 hPa 68% 0.0mm
10/11:00am NNE 14-18 kts 28.2°c 1016.2 hPa 70% 0.0mm
10/10:30am N 14-18 kts 27.8°c 1016.7 hPa 67% 0.0mm
10/10:00am NNE 13-16 kts 27.9°c 1017.0 hPa 66% 0.0mm
10/09:30am N 14-19 kts 29.5°c 1017.2 hPa 57% 0.0mm
10/09:00am N 12-15 kts 28.5°c 1017.2 hPa 60% 0.0mm
10/08:30am N 12-15 kts 27.6°c 1017.4 hPa 65% 0.0mm
10/08:00am WNW 11-14 kts 27.2°c 1017.6 hPa 66% 0.0mm
10/07:30am NNW 10-13 kts 27.1°c 1017.6 hPa 71% 0.0mm
10/07:00am NNW 9-11 kts 25.4°c 1017.6 hPa 75% 0.0mm
10/06:30am NW 6-8 kts 24.2°c 1017.6 hPa 83% 0.0mm
10/06:00am NW 4-5 kts 22.9°c 1017.7 hPa 94% 0.0mm
10/05:30am CALM 0-3 kts 21.4°c 1017.5 hPa 96% 0.0mm
10/05:28am CALM 0 kts 21.1°c 1017.5 hPa 96% 0.0mm
10/05:12am CALM 0 kts 20.4°c 1017.5 hPa 95% 0.0mm
10/05:04am CALM 0 kts 20.2°c 1017.5 hPa 95% 0.0mm
10/05:03am CALM 0 kts 20.2°c 1017.4 hPa 95% 0.0mm
10/05:00am CALM 0 kts 20.2°c 1017.4 hPa 95% 0.0mm
10/04:48am CALM 0 kts 20.3°c 1017.4 hPa 94% 0.0mm
10/04:39am CALM 0 kts 21.2°c 1017.4 hPa 96% 0.0mm
10/04:35am CALM 0 kts 20.9°c 1017.4 hPa 95% 0.0mm
10/04:30am CALM 0 kts 20.4°c 1017.4 hPa 95% 0.0mm
10/04:26am CALM 0 kts 20.6°c 1017.3 hPa 95% 0.0mm
10/04:03am CALM 0 kts 20.5°c 1017.3 hPa 95% 0.0mm
10/04:00am CALM 0 kts 21.4°c 1017.3 hPa 96% 0.0mm
10/03:30am WSW 4-5 kts 21.2°c 1017.2 hPa 96% 0.0mm
10/03:00am NW 3-4 kts 21.1°c 1017.1 hPa 94% 0.0mm
10/02:38am NW 3 kts 21.4°c 1017.1 hPa 95% 0.0mm
10/02:30am NW 3-4 kts 21.5°c 1017.1 hPa 95% 0.0mm
10/02:00am NNW 3-4 kts 21.6°c 1017.3 hPa 93% 0.0mm
10/01:30am NNW 4-5 kts 22.0°c 1017.5 hPa 93% 0.0mm
10/01:00am NNW 4-5 kts 22.5°c 1017.8 hPa 92% 0.0mm
10/12:30am NNW 4-5 kts 23.2°c 1018.1 hPa 91% 0.0mm
10/12:00am N 5-7 kts 23.8°c 1018.5 hPa 90% 0.0mm
Time Wind Speed Temp Pressure Rel. Hum Rain
09/11:30pm NNW 3-5 kts 23.9°c 1018.8 hPa 91% 0.0mm
09/11:00pm N 6-8 kts 23.7°c 1019.1 hPa 90% 0.0mm
09/10:30pm NNE 7-8 kts 24.2°c 1019.3 hPa 89% 0.0mm
09/10:17pm N 8-10 kts 24.4°c 1019.4 hPa 87% 0.0mm
09/10:00pm NNE 8-10 kts 24.7°c 1019.5 hPa 87% 0.0mm
09/09:44pm NE 9-12 kts 24.8°c 1019.6 hPa 86% 0.0mm
09/09:30pm NNE 8-11 kts 24.9°c 1019.6 hPa 85% 0.0mm
09/09:16pm NNE 8-11 kts 24.8°c 1019.7 hPa 86% 0.0mm
09/09:00pm NNE 9-12 kts 24.8°c 1019.7 hPa 85% 0.0mm
09/08:30pm NNE 9-12 kts 24.9°c 1019.6 hPa 84% 0.0mm
09/08:13pm NNE 9-11 kts 24.9°c 1019.6 hPa 84% 0.0mm
09/08:00pm NNE 8-10 kts 24.9°c 1019.6 hPa 84% 0.0mm
09/07:38pm NE 8-10 kts 25.0°c 1019.5 hPa 83% 0.0mm
09/07:30pm NNE 7-10 kts 24.9°c 1019.4 hPa 83% 0.0mm
09/07:25pm NNE 7-9 kts 24.9°c 1019.5 hPa 83% 0.0mm
09/07:00pm NE 7-9 kts 24.8°c 1019.2 hPa 83% 0.0mm
09/06:31pm NE 8-10 kts 24.9°c 1019.1 hPa 81% 0.0mm
09/06:30pm NE 8-10 kts 24.9°c 1019.1 hPa 82% 0.0mm
09/06:19pm NE 8-11 kts 25.0°c 1019.1 hPa 81% 0.0mm
09/06:00pm NE 8-11 kts 25.2°c 1019.0 hPa 80% 0.0mm
09/05:30pm ENE 9-12 kts 25.3°c 1018.9 hPa 78% 0.0mm
09/05:01pm ENE 8-11 kts 25.4°c 1018.8 hPa 78% 0.0mm
09/05:00pm ENE 9-11 kts 25.5°c 1018.8 hPa 78% 0.0mm
09/04:47pm ENE 9-11 kts 25.3°c 1018.8 hPa 79% 0.0mm
09/04:45pm ENE 9-10 kts 25.4°c 1018.8 hPa 79% 0.0mm
09/04:30pm ENE 10-13 kts 25.4°c 1018.9 hPa 78% 0.0mm
09/04:00pm ENE 10-14 kts 25.6°c 1018.9 hPa 77% 0.0mm
09/03:30pm E 11-15 kts 26.0°c 1019.1 hPa 75% 0.0mm
09/03:09pm ENE 11-15 kts 26.4°c 1019.1 hPa 74% 0.0mm
09/03:00pm ENE 11-15 kts 26.5°c 1019.2 hPa 73% 0.0mm
09/02:30pm ENE 13-18 kts 26.4°c 1019.6 hPa 71% 0.0mm
09/02:00pm ENE 13-18 kts 26.8°c 1019.8 hPa 71% 0.0mm
09/01:30pm ESE 14-19 kts 27.6°c 1019.9 hPa 67% 0.0mm
09/01:00pm E 14-18 kts 28.0°c 1020.2 hPa 67% 0.0mm
09/12:30pm E 14-19 kts 27.8°c 1020.3 hPa 67% 0.0mm
09/12:00pm ESE 14-19 kts 27.2°c 1020.7 hPa 68% 0.0mm
09/11:30am ESE 14-19 kts 27.6°c 1020.9 hPa 64% 0.0mm
09/11:00am ESE 15-18 kts 28.1°c 1021.0 hPa 62% 0.0mm
09/10:30am ESE 15-19 kts 27.9°c 1021.2 hPa 65% 0.0mm
09/10:00am SE 14-19 kts 27.7°c 1021.3 hPa 67% 0.0mm
09/09:30am SE 12-16 kts 27.6°c 1021.4 hPa 66% 0.0mm
09/09:00am SE 12-15 kts 27.1°c 1021.2 hPa 68% 0.0mm
09/08:30am SSE 9-12 kts 26.1°c 1021.1 hPa 71% 0.0mm
09/08:00am S 10-13 kts 26.2°c 1021.1 hPa 70% 0.0mm
09/07:30am S 9-13 kts 25.1°c 1021.1 hPa 74% 0.0mm
09/07:00am S 7-11 kts 24.4°c 1021.1 hPa 75% 0.0mm
09/06:30am S 6-9 kts 23.8°c 1021.0 hPa 77% 0.0mm
09/06:00am SSW 6-8 kts 23.4°c 1020.8 hPa 78% 0.0mm
09/05:30am SSW 6-10 kts 23.1°c 1020.2 hPa 78% 0.0mm
09/05:00am SSW 8-11 kts 22.8°c 1020.0 hPa 78% 0.0mm
09/04:30am SSW 5-8 kts 22.7°c 1019.8 hPa 77% 0.0mm
09/04:00am SSW 6-8 kts 22.6°c 1019.6 hPa 78% 0.0mm
09/03:30am SSW 6-7 kts 22.3°c 1019.3 hPa 78% 0.0mm
09/03:00am SSW 7-9 kts 22.5°c 1019.3 hPa 78% 0.0mm
09/02:30am SSW 6-8 kts 22.3°c 1019.2 hPa 80% 0.0mm
09/02:00am SSW 7-9 kts 22.4°c 1019.2 hPa 80% 0.0mm
09/01:30am SSW 6-9 kts 22.6°c 1019.4 hPa 81% 0.0mm
09/01:00am SSW 6-9 kts 22.7°c 1019.4 hPa 82% 0.0mm
09/12:30am SSW 6-9 kts 22.8°c 1019.7 hPa 83% 0.0mm
09/12:00am SSW 6-9 kts 23.0°c 1019.9 hPa 82% 0.0mm